Wind_Speed
13 16 18 18 15 14 14 13 11 9 8 10 9 10 12 11 11 15 16 15 16 20 20 19 19 19 19 17 16 13 12 11 11 11 11 12 12 12 11 10 10 10 11 11 10 9 9 8 7
12 16 19 18 15 14 13 12 11 11 8 11 10 10 11 10 11 14 13 12 13 16 17 16 16 16 17 16 15 13 12 11 10 10 10 10 11 10 10 10 10 10 11 11 11 10 9 9 8
13 15 19 19 16 13 11 10 10 13 11 12 11 9 8 9 10 11 9 9 10 12 13 13 13 13 14 15 15 14 12 11 10 9 8 8 9 9 8 9 9 9 9 10 11 11 9 8 8
15 16 19 19 16 13 8 7 9 13 14 13 10 9 8 8 9 8 8 7 7 8 9 10 11 11 11 11 12 13 13 13 11 10 9 8 7 7 8 9 10 9 8 8 9 10 10 8 6
17 17 21 20 17 12 7 3 6 11 17 15 11 9 9 9 9 7 6 6 5 3 3 5 7 8 8 8 9 11 12 13 12 12 11 9 8 8 9 9 10 10 8 7 8 9 10 9 6
19 18 22 20 18 16 9 5 7 8 13 14 13 12 11 10 8 7 7 8 7 6 5 3 1 3 5 6 6 8 9 10 11 11 11 11 10 10 11 11 10 10 9 7 7 9 10 10 9
21 20 22 18 15 16 12 10 12 13 11 15 16 14 10 7 6 7 8 8 8 8 8 8 7 5 5 5 5 5 6 7 8 9 10 10 10 10 11 12 11 10 9 7 7 9 10 10 10
24 23 24 18 17 16 14 13 16 16 17 16 16 16 12 6 5 7 9 10 10 11 11 11 12 11 10 9 8 6 5 6 6 8 9 10 9 8 9 10 11 11 10 8 7 8 9 9 9
27 24 26 25 24 19 13 14 19 21 22 19 16 17 17 10 8 11 13 13 13 13 14 14 14 15 15 15 13 11 9 8 9 10 11 11 11 9 8 8 10 10 10 9 7 8 8 9 9
30 25 30 33 31 27 19 19 24 25 25 23 20 20 21 16 12 16 19 17 15 15 15 16 16 16 17 17 16 15 13 12 12 13 15 16 14 12 11 10 10 10 9 8 6 8 9 9 9
31 28 33 37 36 35 31 28 29 31 29 26 23 22 23 21 18 20 22 20 17 16 17 17 17 17 16 15 15 15 16 15 14 15 16 17 17 15 14 12 12 11 10 8 8 8 9 10 10
31 31 36 40 40 39 38 37 35 35 32 27 22 21 22 23 22 20 22 20 16 16 17 18 19 17 16 15 14 13 12 11 11 12 15 17 17 17 16 15 15 13 12 11 10 11 11 12 11
33 32 37 41 42 43 43 42 40 38 34 29 24 21 23 23 22 18 20 22 21 20 19 20 19 17 16 16 15 13 11 10 11 12 14 15 15 15 15 16 17 17 16 15 14 14 14 14 14
37 35 37 41 43 44 45 44 42 40 36 32 28 24 23 21 19 16 19 22 25 27 25 23 19 17 17 16 15 13 13 14 16 15 13 13 14 14 15 16 18 19 18 17 17 18 19 18 17
36 36 36 40 43 45 45 43 40 38 37 34 31 26 24 23 21 20 22 26 28 26 25 25 22 18 19 19 18 16 15 16 15 15 14 14 14 14 15 16 16 18 18 18 20 21 23 23 22
34 34 31 33 38 42 44 42 40 40 39 38 35 31 27 26 26 25 25 27 28 26 24 26 27 25 23 24 22 20 18 16 15 15 15 16 16 16 16 15 17 19 20 20 21 21 23 25 26
29 30 31 31 33 36 40 40 39 39 38 38 36 33 31 30 31 30 29 28 30 27 27 29 31 30 26 24 22 20 19 18 16 16 16 17 18 18 19 18 19 21 20 20 20 21 23 25 26
26 29 30 31 33 36 38 37 38 39 38 38 36 34 32 31 30 31 31 31 33 33 32 33 33 31 27 23 22 22 21 20 19 19 18 19 20 20 20 21 21 23 23 23 22 22 23 24 24
30 31 31 30 31 33 34 34 37 40 40 39 38 35 31 30 29 28 29 30 30 32 34 37 36 32 29 29 28 26 24 23 22 22 21 22 24 24 24 25 26 26 26 24 24 23 23 24 24
31 31 30 29 31 32 32 32 35 39 39 39 40 38 35 33 31 29 29 30 28 30 35 39 37 35 35 35 33 30 27 25 24 24 24 25 26 27 28 29 29 28 27 25 24 23 23 24 25
34 33 32 31 32 32 32 32 35 38 39 39 40 40 40 40 39 38 39 37 35 34 35 36 36 38 41 42 38 32 28 25 26 27 27 27 29 29 29 30 29 28 26 25 24 23 23 24 25
35 36 36 35 34 35 36 37 37 38 39 41 40 41 40 40 41 41 41 40 37 37 38 38 38 40 41 42 38 32 27 25 28 30 30 30 32 32 31 31 30 29 27 26 26 24 22 23 23
31 32 35 33 34 36 40 42 41 41 41 41 41 41 40 39 37 34 33 33 35 38 41 42 40 39 38 34 31 28 27 28 30 31 32 32 33 34 33 32 31 31 30 29 28 24 21 21 22
26 28 29 28 29 33 36 40 42 38 38 39 42 43 40 37 33 33 32 31 32 35 39 42 40 39 39 39 36 33 32 32 31 31 33 34 35 36 36 35 34 34 33 32 28 24 21 21 21
26 27 26 25 26 27 26 33 38 34 30 31 34 36 36 34 32 32 31 30 31 31 32 34 38 40 41 41 38 35 34 33 33 34 36 38 39 39 38 38 37 36 36 34 29 24 22 21 21
26 27 27 26 25 24 24 29 30 28 24 23 26 29 32 33 33 33 32 32 32 32 30 29 32 36 38 38 37 36 36 37 38 39 40 41 41 41 40 39 39 38 38 36 31 25 24 23 23
24 25 27 28 28 26 26 28 28 27 24 22 23 25 28 32 34 36 36 33 30 28 29 27 27 28 31 32 35 37 40 41 41 39 40 41 41 40 38 37 37 37 36 34 28 25 24 23 24
23 22 24 25 27 26 27 28 28 27 27 27 29 29 30 31 33 36 37 33 29 27 25 25 25 27 30 32 34 35 36 37 38 37 37 37 38 37 35 35 36 35 34 32 28 26 25 24 24
20 21 22 22 23 23 24 26 26 25 25 27 31 33 33 33 33 32 30 26 22 21 23 26 28 29 30 32 32 33 33 34 35 35 35 36 36 36 36 35 35 33 32 32 31 29 28 26 26
25 24 24 23 21 23 25 27 26 22 23 24 26 28 27 23 23 21 18 17 21 25 28 31 32 32 33 33 32 32 33 33 33 34 35 35 34 33 32 32 32 30 30 30 31 31 30 28 26
Wind_Direction
169 174 170 165 167 169 169 178 174 172 158 132 126 138 142 139 124 110 102 96 96 94 89 82 78 75 73 71 67 64 63 62 59 58 59 59 54 51 50 50 46 43 44 47 44 36 35 29 25
171 176 172 169 170 171 177 180 174 166 161 149 150 157 149 145 135 126 113 107 101 95 91 86 78 73 70 68 66 60 54 53 54 52 52 54 51 47 47 46 43 40 40 44 48 44 42 37 32
177 180 173 169 171 186 190 187 177 173 172 167 160 166 163 157 149 142 133 124 110 99 94 88 80 70 65 63 61 56 46 39 38 40 40 40 40 36 35 33 31 32 35 38 42 44 44 46 43
185 180 175 172 176 185 189 178 173 180 183 177 163 178 177 177 168 157 163 160 137 114 104 97 88 77 67 61 58 54 49 41 33 26 20 13 15 22 20 16 13 16 25 33 35 37 36 38 41
196 187 178 178 190 192 179 186 207 200 193 181 172 186 189 193 191 184 192 197 190 175 137 105 91 79 68 60 56 53 50 42 35 28 20 7 356 356 1 6 8 8 12 19 23 25 27 26 28
205 193 185 187 203 207 198 234 263 252 212 190 187 188 189 196 200 200 213 219 225 238 256 274 334 26 31 34 42 48 48 43 34 26 22 17 7 355 350 355 1 4 9 17 16 14 15 15 14
210 196 186 191 211 220 213 237 269 271 234 200 197 193 181 185 205 210 219 228 235 247 256 267 278 292 311 331 350 10 20 27 28 21 17 9 5 1 354 354 357 360 2 10 18 14 11 9 7
215 200 183 183 207 221 226 236 253 263 258 222 207 203 193 197 235 243 241 247 251 256 258 262 270 277 284 293 303 305 315 331 346 352 356 351 344 346 351 353 351 351 350 355 4 8 7 4 1
218 203 183 194 210 220 232 245 252 257 263 255 235 224 223 228 255 266 262 258 260 263 263 264 269 277 285 288 288 286 283 290 304 314 322 325 324 323 325 331 335 337 338 345 349 350 349 350 351
218 203 190 204 216 225 228 242 251 255 260 261 252 236 231 234 263 269 266 264 265 267 269 270 272 276 281 285 286 283 277 274 284 297 305 307 306 304 301 305 312 320 323 333 335 330 329 330 337
218 200 196 208 218 228 232 237 245 251 253 254 252 247 239 245 263 262 259 259 264 272 278 279 277 278 281 287 288 285 282 281 284 294 299 301 298 296 294 299 303 309 313 319 322 317 315 316 320
222 204 202 212 220 228 234 240 246 251 253 255 257 254 252 257 262 260 252 256 267 274 280 284 284 287 291 291 287 284 285 286 289 297 302 301 299 296 297 298 299 299 296 300 308 308 305 306 306
226 213 210 216 223 228 235 242 248 254 259 262 263 263 261 261 262 255 242 253 268 273 274 277 275 274 276 280 282 283 280 286 296 299 302 302 297 292 292 292 294 294 289 291 297 301 300 300 297
226 219 215 220 228 233 238 244 251 258 265 268 269 266 259 260 256 250 241 257 270 274 273 276 273 267 267 268 270 275 272 278 282 282 285 287 287 286 284 285 289 289 288 291 294 298 298 297 294
229 227 222 224 230 236 242 247 254 260 264 266 268 268 260 256 255 252 254 261 264 267 271 277 280 272 267 266 265 269 272 272 271 274 279 278 278 278 279 281 282 284 287 289 293 299 299 295 292
233 233 228 228 234 241 247 251 253 256 260 263 265 265 259 254 255 254 261 263 255 257 268 275 279 279 274 268 266 267 271 272 273 278 283 280 275 273 273 277 283 288 293 295 296 300 302 299 294
234 236 233 229 229 234 243 248 251 254 258 262 264 265 262 259 258 258 263 259 247 253 268 276 278 279 279 277 273 272 273 275 277 279 281 283 280 279 281 282 286 291 296 298 299 302 303 301 296
235 236 235 235 234 237 242 246 247 249 254 258 261 264 265 264 263 261 262 258 250 257 267 273 276 276 274 274 275 274 274 274 273 273 275 277 277 277 280 285 289 293 295 296 295 297 299 299 295
233 237 240 243 245 248 253 257 258 255 255 258 261 264 266 268 265 262 262 262 260 259 262 266 268 269 271 271 270 272 272 272 272 272 274 274 273 275 281 286 289 292 293 293 292 294 295 295 292
241 245 248 252 252 253 254 255 260 263 263 264 266 267 266 266 268 267 268 269 269 265 263 261 262 266 270 268 265 265 268 272 274 273 270 268 268 272 279 284 286 286 288 288 290 294 293 291 288
248 250 252 254 254 254 252 249 252 258 262 265 268 271 271 270 269 268 266 267 267 265 261 259 264 270 273 267 259 257 261 270 274 272 268 264 265 269 277 282 282 282 284 286 289 293 290 287 285
253 255 254 251 249 246 247 242 243 249 258 265 267 267 269 271 271 270 268 266 264 261 256 258 267 272 271 263 253 250 256 268 273 270 265 263 266 272 276 277 276 276 278 283 291 293 288 284 281
250 252 252 249 246 245 247 249 248 248 255 264 269 268 269 271 269 267 266 264 261 257 255 260 265 266 264 259 252 260 273 277 273 266 261 261 266 271 273 272 272 274 276 280 287 289 286 282 278
248 251 254 251 244 243 244 250 257 256 257 260 263 266 266 265 263 263 265 263 257 253 253 254 256 255 258 262 266 272 276 275 272 267 266 269 273 275 274 272 271 274 277 280 283 282 280 279 279
243 246 252 252 247 247 245 247 255 261 264 263 261 259 256 254 256 259 261 259 258 254 253 251 249 248 253 261 265 268 269 269 267 267 270 272 273 274 274 273 271 270 272 275 278 274 272 275 279
244 242 244 248 248 246 244 247 254 261 263 263 259 256 253 252 255 256 257 256 259 263 266 267 263 260 262 263 263 263 264 265 266 268 270 271 270 270 271 272 271 269 269 271 273 266 264 270 277
243 243 243 246 247 247 246 250 254 255 258 261 264 262 259 258 258 258 255 253 259 267 268 272 271 267 265 265 265 264 265 266 266 266 267 268 268 269 271 273 273 271 269 268 265 257 258 266 273
243 239 239 246 250 249 247 250 253 254 255 258 261 262 263 264 263 262 255 256 259 261 260 263 264 262 264 265 265 266 268 267 267 267 267 268 268 270 272 274 273 270 267 263 257 251 252 259 266
245 239 237 244 250 250 249 248 248 246 246 252 256 260 264 265 265 264 254 252 250 254 259 261 264 265 265 267 268 268 269 269 269 270 272 273 272 273 274 273 270 266 264 260 253 250 250 254 261
249 246 240 241 247 249 246 243 242 243 246 251 252 250 254 260 258 255 254 262 269 272 271 270 268 265 262 262 265 267 268 269 271 271 273 274 272 271 272 271 266 261 261 260 254 253 251 254 259
Height
5910 5911 5912 5915 5917 5918 5919 5920 5920 5920 5920 5918 5919 5922 5925 5926 5928 5929 5927 5925 5924 5921 5920 5921 5921 5920 5920 5920 5921 5921 5920 5919 5918 5918 5917 5917 5916 5915 5913 5912 5910 5909 5908 5907 5906 5906 5906 5906 5906
5910 5911 5913 5915 5916 5917 5919 5920 5921 5921 5922 5920 5921 5924 5926 5926 5927 5928 5927 5927 5926 5923 5923 5923 5924 5923 5923 5922 5922 5922 5922 5921 5920 5919 5918 5917 5917 5916 5914 5912 5911 5909 5908 5908 5907 5907 5906 5906 5906
5910 5912 5913 5914 5915 5917 5919 5919 5920 5920 5921 5921 5923 5925 5926 5926 5927 5928 5928 5928 5928 5926 5926 5926 5926 5926 5926 5925 5924 5923 5923 5923 5922 5921 5919 5918 5917 5917 5915 5913 5912 5910 5909 5908 5907 5906 5906 5905 5905
5909 5911 5913 5915 5915 5916 5917 5917 5917 5919 5920 5920 5922 5925 5926 5927 5927 5928 5929 5929 5929 5928 5928 5927 5927 5928 5928 5927 5926 5925 5925 5924 5923 5922 5921 5920 5918 5917 5916 5915 5913 5911 5910 5908 5907 5907 5906 5905 5905
5908 5910 5912 5913 5913 5915 5914 5914 5914 5918 5919 5918 5921 5925 5926 5926 5926 5928 5929 5930 5930 5930 5930 5929 5929 5929 5929 5928 5927 5926 5925 5925 5924 5923 5922 5921 5920 5918 5917 5915 5914 5912 5910 5909 5908 5906 5906 5906 5905
5907 5909 5911 5910 5911 5912 5911 5911 5912 5915 5918 5920 5922 5924 5925 5926 5926 5927 5928 5929 5931 5930 5930 5931 5930 5930 5930 5929 5928 5927 5926 5925 5925 5924 5923 5922 5921 5919 5918 5916 5914 5912 5911 5909 5908 5906 5905 5905 5904
5905 5907 5909 5909 5909 5908 5908 5908 5910 5912 5914 5918 5921 5924 5925 5926 5926 5927 5928 5928 5930 5930 5930 5930 5930 5930 5930 5930 5929 5928 5926 5925 5924 5924 5923 5922 5921 5920 5918 5916 5914 5912 5911 5910 5908 5907 5906 5905 5904
5901 5906 5908 5908 5905 5904 5904 5905 5907 5911 5912 5916 5919 5922 5925 5926 5927 5928 5929 5929 5929 5929 5930 5929 5929 5929 5929 5929 5929 5928 5927 5925 5924 5923 5922 5921 5920 5919 5918 5916 5914 5912 5911 5910 5908 5907 5905 5904 5903
5898 5904 5905 5903 5900 5900 5901 5902 5904 5906 5908 5913 5917 5922 5924 5924 5925 5927 5928 5928 5927 5927 5928 5928 5928 5928 5927 5928 5928 5927 5926 5924 5923 5922 5921 5920 5919 5918 5917 5916 5914 5912 5910 5909 5907 5906 5904 5903 5902
5894 5901 5901 5899 5898 5897 5897 5899 5900 5902 5904 5908 5914 5918 5922 5923 5925 5925 5925 5925 5925 5925 5926 5926 5926 5925 5925 5925 5925 5925 5924 5922 5921 5921 5920 5918 5917 5916 5915 5914 5913 5911 5909 5907 5906 5904 5903 5902 5900
5890 5895 5896 5894 5894 5894 5894 5895 5895 5897 5901 5906 5911 5916 5919 5921 5923 5923 5923 5922 5921 5922 5923 5923 5923 5923 5922 5922 5922 5922 5921 5920 5919 5918 5917 5916 5915 5914 5913 5912 5911 5910 5908 5906 5904 5902 5901 5899 5898
5885 5890 5889 5889 5889 5890 5890 5891 5892 5893 5898 5903 5908 5912 5914 5916 5918 5919 5920 5921 5920 5920 5920 5920 5919 5918 5917 5918 5918 5918 5918 5917 5916 5916 5915 5913 5912 5912 5911 5910 5909 5908 5906 5904 5903 5901 5899 5897 5896
5878 5884 5885 5884 5884 5885 5886 5887 5888 5890 5894 5898 5903 5907 5908 5910 5911 5912 5914 5917 5918 5917 5916 5917 5917 5916 5915 5914 5914 5914 5914 5913 5913 5912 5911 5910 5909 5909 5908 5907 5906 5906 5904 5902 5900 5899 5898 5896 5894
5871 5876 5879 5880 5880 5881 5883 5884 5886 5887 5891 5894 5897 5901 5903 5905 5906 5908 5911 5913 5914 5913 5913 5913 5914 5914 5913 5913 5912 5912 5911 5910 5910 5909 5908 5908 5906 5905 5904 5903 5902 5901 5900 5899 5897 5895 5895 5893 5891
5865 5870 5874 5875 5875 5876 5878 5881 5884 5885 5886 5889 5892 5895 5898 5900 5903 5905 5907 5909 5908 5907 5907 5907 5908 5909 5909 5909 5909 5909 5909 5908 5907 5906 5905 5904 5903 5902 5900 5900 5899 5898 5896 5895 5894 5892 5891 5889 5887
5860 5865 5870 5872 5873 5872 5874 5876 5879 5879 5880 5882 5885 5889 5892 5895 5897 5900 5902 5903 5903 5902 5902 5902 5903 5903 5904 5904 5903 5904 5904 5903 5903 5902 5901 5900 5899 5898 5896 5896 5895 5894 5893 5892 5891 5889 5887 5885 5882
5856 5859 5862 5865 5866 5866 5866 5868 5871 5873 5875 5876 5878 5881 5885 5889 5892 5895 5896 5897 5896 5896 5896 5897 5897 5898 5898 5898 5897 5898 5898 5898 5897 5897 5896 5895 5894 5893 5891 5891 5891 5890 5889 5887 5886 5885 5883 5880 5878
5849 5851 5853 5856 5858 5858 5858 5861 5863 5867 5869 5870 5872 5874 5877 5881 5885 5887 5888 5889 5890 5891 5891 5891 5891 5891 5891 5891 5890 5891 5892 5892 5891 5891 5890 5889 5889 5888 5887 5886 5886 5885 5884 5883 5881 5880 5878 5876 5873
5840 5844 5847 5850 5852 5853 5854 5854 5855 5858 5861 5862 5864 5866 5869 5872 5874 5877 5879 5880 5882 5885 5885 5883 5883 5883 5883 5883 5883 5884 5885 5886 5885 5884 5884 5883 5882 5882 5882 5882 5881 5880 5878 5877 5876 5875 5873 5871 5868
5836 5839 5843 5845 5845 5847 5847 5848 5847 5849 5852 5853 5854 5857 5860 5863 5865 5868 5870 5871 5873 5875 5875 5874 5874 5874 5874 5874 5874 5875 5877 5878 5878 5878 5878 5877 5876 5876 5876 5876 5876 5874 5872 5872 5871 5870 5868 5865 5863
5830 5832 5835 5837 5839 5840 5842 5843 5842 5843 5845 5846 5848 5849 5851 5854 5856 5858 5860 5862 5864 5865 5865 5864 5865 5865 5865 5865 5865 5866 5869 5871 5872 5872 5871 5870 5870 5869 5869 5870 5869 5868 5867 5866 5865 5864 5863 5860 5858
5822 5824 5827 5830 5832 5834 5835 5836 5837 5837 5837 5839 5841 5842 5844 5845 5846 5847 5849 5852 5855 5857 5857 5857 5857 5857 5856 5855 5856 5858 5860 5863 5865 5865 5864 5864 5864 5863 5863 5862 5861 5860 5860 5860 5859 5858 5857 5855 5853
5815 5816 5817 5821 5824 5826 5827 5828 5831 5831 5832 5833 5834 5835 5837 5838 5839 5839 5841 5844 5846 5848 5849 5849 5848 5848 5848 5846 5848 5850 5852 5855 5857 5858 5858 5858 5858 5857 5856 5855 5854 5853 5853 5854 5853 5853 5852 5851 5849
5808 5809 5810 5813 5815 5817 5820 5820 5820 5823 5826 5827 5827 5827 5829 5830 5831 5831 5832 5834 5835 5837 5838 5838 5838 5838 5837 5838 5839 5841 5844 5847 5849 5851 5851 5851 5850 5849 5848 5847 5847 5846 5846 5846 5846 5847 5847 5846 5844
5801 5804 5805 5806 5808 5810 5813 5812 5811 5813 5816 5818 5818 5818 5820 5821 5822 5821 5822 5823 5825 5825 5825 5827 5827 5828 5828 5829 5831 5834 5836 5839 5841 5842 5843 5842 5842 5841 5840 5839 5838 5838 5838 5838 5839 5840 5840 5840 5839
5795 5798 5800 5801 5803 5804 5805 5804 5805 5806 5807 5808 5808 5809 5811 5812 5813 5813 5814 5814 5815 5815 5817 5818 5819 5819 5820 5822 5825 5827 5829 5831 5832 5832 5833 5832 5832 5831 5830 5830 5829 5829 5830 5831 5832 5833 5834 5834 5833
5791 5793 5794 5795 5795 5798 5798 5798 5798 5799 5800 5801 5801 5803 5804 5805 5806 5806 5806 5806 5807 5808 5810 5812 5813 5814 5814 5816 5817 5819 5820 5821 5822 5822 5822 5822 5821 5821 5821 5821 5820 5821 5821 5822 5824 5826 5827 5828 5827
5786 5787 5788 5788 5789 5790 5792 5792 5792 5792 5793 5794 5794 5795 5797 5798 5798 5798 5798 5799 5801 5803 5805 5807 5808 5808 5808 5808 5809 5810 5811 5812 5812 5812 5811 5811 5811 5811 5811 5811 5811 5811 5812 5814 5816 5817 5819 5821 5821
5780 5781 5781 5781 5782 5784 5785 5787 5785 5786 5786 5787 5787 5788 5790 5791 5791 5790 5790 5791 5794 5797 5799 5801 5801 5800 5800 5800 5800 5801 5802 5803 5803 5803 5803 5803 5803 5802 5802 5802 5802 5802 5803 5805 5807 5809 5811 5813 5814
5773 5774 5774 5775 5776 5777 5778 5780 5778 5781 5781 5781 5782 5783 5784 5784 5785 5785 5785 5787 5789 5790 5791 5791 5791 5791 5791 5791 5791 5792 5793 5794 5794 5795 5796 5795 5795 5794 5793 5792 5792 5793 5794 5795 5798 5800 5803 5805 5806